Wind_Speed
22 22 23 23 23 22 21 20 18 17 16 13 11 11 11 8 7 7 7 6 6 5 5 6 7 7 8 9 11 12 15 16 17 16 16 17 18 18 18 17 17 15 14 14 14 14 15 15 16 17 17 18 19 20 20 20 20 20 21 21 21 22 22 22 22 22 22 22 22 22 22 22 21 21 20 20 20 21 21 20 20 19 19 19 19
22 22 22 22 22 20 19 18 18 18 16 13 12 13 11 8 8 8 7 7 7 6 5 6 7 7 8 9 11 13 14 15 16 15 15 16 16 17 16 14 13 13 13 13 14 14 15 16 16 17 17 18 18 19 19 20 20 21 21 22 22 22 21 21 21 21 20 20 20 21 21 21 21 20 20 20 19 19 19 20 20 20 20 19 19
23 23 22 22 21 19 18 17 17 17 15 13 14 14 11 9 9 8 7 8 7 7 7 6 6 7 8 9 11 13 14 14 14 14 14 15 14 14 13 11 11 12 13 13 14 15 16 16 16 17 17 17 18 18 19 20 20 21 22 22 22 21 21 21 21 20 20 21 21 20 20 21 21 21 21 21 20 19 18 19 19 20 20 20 19
24 23 23 22 21 19 18 18 17 16 13 14 15 14 12 11 9 8 8 9 9 8 7 6 5 6 7 9 11 13 13 14 13 13 13 12 11 11 11 10 11 12 13 14 14 15 16 16 16 16 16 17 18 19 19 20 21 21 21 21 21 21 21 21 22 22 23 23 23 23 23 23 23 23 23 23 23 21 20 18 18 19 20 21 20
25 25 24 23 21 19 18 18 17 14 14 15 16 15 13 12 10 10 10 11 10 9 8 6 6 6 7 8 10 12 13 13 13 13 12 10 8 8 9 9 10 11 12 13 14 15 15 15 15 15 16 17 18 19 20 20 20 21 21 21 21 22 22 22 23 23 23 23 23 23 23 23 23 23 23 23 23 22 21 19 19 18 19 21 21
25 25 25 24 22 20 18 17 16 15 16 17 17 16 14 13 12 11 12 12 11 9 8 6 6 6 7 8 9 11 12 12 12 11 10 8 7 7 7 8 9 10 12 13 14 14 14 14 14 15 16 17 18 19 20 20 20 21 21 22 22 22 22 22 22 22 22 22 21 21 21 21 22 22 22 23 22 21 21 21 20 20 20 21 22
24 24 24 23 22 20 19 17 16 16 17 18 18 17 16 14 13 12 12 12 10 9 8 7 7 7 7 7 8 10 11 11 11 9 8 7 7 7 7 8 9 10 11 12 13 13 13 13 14 15 16 17 18 19 19 20 20 20 21 21 21 21 21 21 21 21 21 21 21 21 21 22 21 21 21 22 21 19 18 18 19 19 19 19 20
22 22 22 22 21 21 19 18 17 18 19 20 20 18 17 15 13 12 12 12 10 9 9 8 8 8 7 7 8 9 10 11 9 7 6 6 6 6 7 8 9 10 11 11 11 11 11 12 13 14 16 17 18 18 19 19 20 20 21 21 21 21 21 21 21 21 21 21 22 22 23 22 21 21 20 19 19 18 19 19 19 20 20 19 18
20 20 21 21 20 20 19 18 19 20 20 21 20 18 16 14 13 12 12 12 11 11 10 9 9 8 7 6 7 8 10 9 8 6 6 5 6 6 7 7 9 10 10 10 10 9 9 10 12 14 15 16 17 18 19 19 19 20 20 21 21 21 21 22 22 21 21 21 22 23 23 22 22 22 22 22 22 23 24 23 22 22 22 22 20
19 19 19 19 19 18 18 18 19 20 20 20 19 17 15 13 12 12 13 12 12 11 11 10 10 9 7 6 7 8 8 7 6 6 5 5 6 6 6 7 8 9 9 9 9 8 8 9 11 13 14 15 16 18 18 19 19 20 20 20 21 21 22 22 22 22 22 22 23 23 23 24 25 26 26 26 27 27 27 26 25 24 23 22 21
19 19 19 18 18 18 18 19 20 20 19 18 17 15 14 13 13 13 13 13 12 12 11 11 10 9 7 6 6 7 6 5 5 5 5 5 6 6 6 7 8 8 8 8 8 8 8 10 11 12 14 15 16 17 18 19 19 20 20 20 20 21 21 22 22 22 23 23 24 24 24 25 26 26 26 27 27 28 28 27 26 25 24 23 22
21 20 20 19 19 18 18 19 20 19 18 16 14 13 12 13 14 14 14 13 13 12 12 11 10 9 7 6 6 5 5 5 5 5 5 5 5 5 6 6 7 8 8 8 8 8 9 10 11 12 13 14 16 17 18 18 19 19 20 20 20 20 21 21 22 22 23 24 24 25 26 26 26 26 27 27 28 28 27 27 27 26 26 26 25
23 22 21 20 19 18 19 20 20 19 17 14 11 11 12 13 14 14 13 13 13 13 12 11 10 8 7 6 5 5 5 5 5 5 5 5 5 5 5 6 7 8 8 8 8 9 9 10 11 12 14 15 16 17 17 18 18 19 19 20 20 20 20 21 22 22 23 24 25 26 27 27 27 28 29 29 29 28 28 29 29 29 30 30 29
25 23 22 20 19 19 20 21 20 19 17 13 11 11 12 13 14 14 13 13 13 12 12 11 10 9 8 7 6 6 6 5 5 5 6 5 4 5 5 6 7 8 8 9 9 9 10 11 12 13 14 15 16 17 17 17 17 18 19 19 19 20 20 20 22 23 24 25 26 26 27 28 28 29 29 30 30 30 31 31 32 33 33 33 32
27 25 23 21 20 22 23 23 22 19 16 13 11 11 12 13 13 13 14 13 13 12 12 11 11 9 8 7 7 6 6 6 6 6 5 4 4 5 5 6 7 8 8 9 9 10 10 11 12 13 14 15 16 16 16 16 17 17 18 18 19 19 20 20 22 23 24 25 25 26 26 27 27 28 28 29 30 31 32 32 32 33 32 31 31
28 26 24 22 22 25 25 25 22 18 14 13 11 11 12 12 13 13 13 13 13 12 12 12 11 10 9 8 8 7 7 6 6 6 5 4 4 5 5 6 7 8 8 9 9 10 10 11 12 13 14 15 15 16 16 16 16 16 17 18 19 19 20 20 22 23 24 24 25 25 26 26 26 26 27 27 28 29 29 28 29 31 30 29 29
30 29 27 24 25 26 26 24 21 17 14 14 13 12 13 13 12 13 13 13 12 12 13 13 12 11 10 10 9 9 8 7 7 6 5 5 4 5 6 6 7 8 8 9 9 9 10 11 12 13 14 15 15 15 15 15 15 16 16 18 19 20 20 21 22 23 23 24 25 25 25 25 25 25 25 26 26 27 26 25 28 30 30 31 32
33 31 28 26 26 27 25 23 19 17 15 15 13 13 13 13 12 13 13 13 13 13 14 14 13 12 11 11 10 9 9 8 7 7 6 5 5 5 6 6 7 8 8 9 9 9 10 10 11 13 13 14 14 14 15 15 15 15 16 17 18 19 20 21 22 22 22 23 24 24 24 24 24 25 25 25 26 26 26 27 29 30 30 31 32
32 31 28 27 27 26 24 21 18 16 15 13 12 13 13 13 13 14 14 14 14 14 15 14 13 13 13 12 11 10 10 9 8 7 6 5 5 6 6 7 7 8 8 9 9 9 10 11 12 12 13 13 13 14 14 14 14 14 15 16 17 18 19 21 21 21 21 21 22 23 24 23 24 24 25 25 26 27 28 29 29 30 30 31 31
32 31 30 29 28 25 23 20 17 15 14 13 12 13 13 14 14 15 15 14 14 15 16 15 14 14 14 13 12 11 11 10 8 7 6 6 5 6 7 7 8 8 9 9 9 9 10 11 12 12 12 12 12 13 13 13 13 14 15 16 16 17 18 19 19 20 20 20 21 22 22 23 23 24 24 25 26 27 28 29 30 30 31 31 32
34 34 33 31 28 24 22 19 16 14 14 13 13 13 14 15 15 15 14 15 15 17 17 16 15 15 15 14 13 12 12 10 8 7 6 6 6 6 7 7 8 8 8 8 8 9 10 11 12 12 12 11 11 12 12 12 12 13 14 15 15 17 17 17 18 19 19 19 20 21 21 22 23 23 24 25 26 27 28 29 30 30 31 31 31
33 33 31 28 26 23 19 16 15 14 14 14 14 15 16 16 16 16 16 16 17 18 17 16 16 16 15 14 13 13 12 10 8 7 6 5 5 6 7 7 8 8 8 8 7 8 10 10 11 11 10 10 10 11 11 11 12 13 13 14 15 16 16 16 17 18 18 19 19 19 20 21 22 23 24 25 26 28 29 30 30 30 31 31 32
30 28 26 24 22 19 16 14 14 15 15 16 16 16 17 16 16 17 17 18 18 18 17 17 17 17 16 15 14 13 11 9 8 6 5 5 5 6 7 7 7 7 7 7 6 8 9 10 10 10 9 9 9 10 10 10 11 12 13 14 14 15 15 16 16 17 17 18 18 18 19 20 21 22 24 25 26 27 28 29 30 30 31 31 32
27 25 23 21 19 16 14 14 15 16 17 17 17 17 17 17 17 18 18 18 18 18 17 17 17 17 16 15 13 12 11 9 7 6 5 5 5 6 7 7 7 7 7 6 6 8 9 9 9 8 8 9 9 9 9 9 10 11 12 13 14 14 14 15 15 16 17 17 17 18 19 20 21 22 23 24 25 26 26 27 28 29 30 30 31
25 23 21 19 17 14 13 15 17 18 18 18 17 16 16 17 19 19 18 17 18 18 17 17 17 16 15 14 13 12 10 9 7 6 5 5 5 6 6 6 6 6 6 5 6 7 8 8 7 7 8 8 8 8 8 8 9 11 12 12 13 13 13 14 15 16 16 16 17 18 20 21 22 23 23 24 24 24 25 26 27 28 28 29 30
25 22 19 17 15 14 14 17 19 19 19 18 17 17 18 19 20 19 18 18 18 18 17 17 17 16 15 14 13 12 10 9 7 6 5 5 6 6 7 6 5 5 5 4 6 7 7 6 6 6 7 7 7 7 7 8 9 11 11 12 12 12 12 13 14 15 15 16 17 19 20 21 23 23 23 23 23 23 24 25 25 26 27 28 28
20 16 13 13 14 14 16 19 20 20 19 18 18 19 20 21 21 19 18 18 18 18 17 17 16 15 14 14 13 12 11 9 8 6 5 6 7 7 7 6 5 5 4 4 5 6 6 5 5 5 5 6 6 6 6 8 9 10 11 11 12 12 12 13 14 14 15 16 17 19 20 21 22 22 22 23 23 24 24 25 25 25 26 27 28
13 11 11 13 14 15 18 21 22 21 19 19 19 21 21 21 20 19 18 18 17 16 16 15 14 13 13 13 14 13 11 9 8 7 6 7 7 7 7 5 5 4 3 3 4 5 4 4 4 4 4 4 4 4 6 8 9 10 10 10 11 11 12 13 13 14 15 16 17 18 19 20 20 21 22 23 23 24 25 25 25 26 26 26 27
9 10 13 14 14 17 21 22 22 20 19 19 20 20 20 19 19 18 18 18 17 16 14 13 12 12 14 15 15 13 11 10 9 8 7 8 8 7 7 5 4 4 3 3 4 4 3 3 3 2 3 3 3 4 6 8 9 9 10 10 10 11 12 13 13 14 15 16 17 17 18 19 19 20 21 22 23 24 25 25 26 26 26 26 26
9 10 12 12 14 18 21 21 20 19 19 19 19 19 18 18 18 17 18 17 17 16 16 15 14 14 16 17 16 14 13 12 10 9 9 8 8 8 7 6 5 4 3 3 4 3 1 1 1 1 1 1 2 4 6 7 8 9 9 10 10 11 12 12 13 13 14 15 16 16 17 17 18 19 20 20 21 23 23 24 25 26 26 26 26
11 10 10 11 14 18 20 20 19 19 19 19 19 18 17 17 17 17 17 17 17 16 16 16 16 17 18 18 17 15 14 12 11 10 10 9 9 8 7 6 5 4 3 3 4 2 1 1 1 1 1 1 2 4 5 7 8 8 8 8 9 9 10 11 11 12 13 14 14 15 15 16 16 17 18 19 20 21 22 23 24 24 24 25 25
13 10 10 12 15 18 19 19 19 19 19 19 19 18 18 17 16 16 17 17 17 17 17 16 17 18 20 19 18 17 15 13 12 11 11 10 10 9 8 7 6 5 4 4 4 3 3 3 3 2 2 2 3 4 5 6 6 6 6 7 7 7 8 9 9 10 11 12 13 13 14 14 15 16 17 17 18 19 20 20 21 22 23 24 24
13 11 12 14 16 17 18 19 19 19 19 19 18 18 18 18 18 17 17 17 17 17 18 18 19 21 21 20 19 18 16 14 13 12 11 11 10 9 8 7 7 5 5 5 5 5 4 4 4 4 3 3 3 4 4 5 5 5 4 5 5 6 6 7 8 9 10 10 11 12 12 13 14 14 15 16 17 17 18 19 19 20 21 22 22
13 12 13 15 17 17 18 18 19 19 19 19 18 18 19 19 19 18 18 17 17 17 18 21 22 22 21 20 19 18 17 15 14 13 12 12 11 10 9 8 8 7 6 6 6 6 6 6 5 5 5 5 4 4 3 3 3 3 3 3 4 4 5 6 7 8 9 10 10 11 11 12 13 13 14 15 15 16 17 17 18 18 19 20 21
13 13 15 18 19 20 19 20 20 20 19 19 19 19 20 19 19 18 17 17 17 17 19 21 22 21 20 20 20 19 17 16 15 14 13 12 12 11 10 10 9 8 6 7 7 7 7 7 7 7 6 6 6 5 4 3 2 1 1 2 3 4 5 6 7 8 9 9 10 11 11 12 12 13 13 14 15 15 16 16 17 17 18 18 19
13 14 17 20 22 22 22 22 21 20 20 20 21 21 20 20 19 18 18 17 17 18 20 22 22 21 20 20 20 19 18 17 16 14 13 13 12 12 11 11 10 9 8 8 9 9 8 8 8 8 8 7 7 5 4 3 2 1 2 2 3 4 5 6 7 8 9 10 10 11 12 12 13 13 14 14 14 15 15 16 16 17 17 18 18
13 16 19 21 23 24 24 23 22 21 22 22 22 22 21 20 20 20 19 18 18 19 21 24 24 22 20 20 20 19 18 17 16 15 14 14 13 13 12 12 11 10 9 10 10 10 10 10 10 9 9 8 8 7 6 5 4 3 4 4 5 6 7 7 8 9 10 10 11 12 13 13 14 14 15 15 15 15 16 16 17 17 17 17 18
16 17 19 22 24 24 25 25 24 24 24 24 23 22 21 21 21 20 19 18 18 19 22 24 24 22 21 21 20 20 19 18 17 15 14 14 14 14 13 13 12 11 11 11 11 12 11 11 11 11 10 10 9 8 7 7 6 6 6 6 7 8 9 9 10 10 11 11 12 13 13 14 15 15 16 16 16 17 17 17 17 17 17 17 17
20 20 21 22 24 25 25 25 25 24 24 23 22 22 21 21 21 20 19 19 18 20 22 23 23 22 22 22 21 20 19 18 17 16 15 15 15 14 14 14 13 13 12 12 13 13 12 12 13 12 12 11 11 10 10 9 8 8 8 9 9 10 11 11 12 12 13 13 14 14 15 15 16 16 17 17 17 18 18 18 18 18 18 18 18
24 23 22 23 24 26 25 25 25 24 23 22 21 21 21 20 19 19 19 19 19 20 22 23 23 23 22 22 21 20 20 19 19 18 17 16 15 15 15 15 14 14 14 13 14 13 13 14 14 14 14 13 13 13 12 12 11 11 11 11 12 13 13 14 14 15 15 15 15 16 16 17 17 18 18 18 18 18 19 20 20 19 19 19 19
27 26 24 23 25 25 25 24 24 23 22 22 21 20 20 19 19 19 19 19 19 21 22 23 24 24 23 22 22 21 21 21 21 20 19 18 17 16 16 16 16 16 15 15 15 15 15 15 15 15 15 15 15 15 14 14 14 13 13 14 14 15 15 16 17 17 17 17 17 17 18 18 18 19 19 20 20 20 20 21 21 21 21 21 21
29 28 26 25 25 25 24 23 23 22 22 22 21 20 19 19 19 19 19 19 20 22 24 25 25 24 23 22 22 22 22 22 22 21 19 18 17 17 16 16 16 16 16 16 16 16 16 16 16 16 17 17 17 17 17 16 16 16 16 16 16 17 17 18 19 19 20 20 20 19 19 20 20 20 20 21 21 21 21 22 22 22 22 22 22
30 29 28 28 27 25 24 23 22 22 21 21 20 20 20 19 19 19 19 20 21 23 25 25 25 24 23 22 22 23 23 23 22 21 20 19 18 18 17 17 16 16 16 16 17 17 17 17 17 17 18 18 19 19 19 19 19 18 18 18 18 19 19 20 20 21 21 22 22 22 22 22 22 22 22 22 23 23 23 23 23 23 23 23 23
29 30 29 29 28 26 25 23 22 21 21 20 20 20 20 19 19 19 20 21 22 24 25 26 25 24 22 22 22 22 22 22 22 21 20 20 19 19 18 18 18 18 18 18 18 18 18 18 18 19 19 20 20 21 21 21 21 21 21 21 21 20 21 21 22 22 23 24 25 25 25 24 24 24 24 24 24 25 25 25 25 25 25 25 25
27 28 27 27 27 26 24 23 22 21 21 21 20 20 20 20 19 19 19 20 22 24 25 25 24 23 23 22 22 22 22 22 22 22 21 20 20 19 19 19 19 19 19 19 19 19 19 19 20 20 20 21 22 22 23 23 23 23 23 23 22 22 22 23 24 24 25 26 27 27 27 27 27 27 27 27 27 27 27 27 28 28 27 27 27
24 25 25 25 24 23 23 23 22 21 20 19 19 20 20 20 19 18 18 20 22 23 24 24 23 23 22 22 22 22 22 22 22 22 22 21 21 20 20 20 20 20 20 20 19 20 20 20 20 20 21 22 23 23 24 24 24 24 24 24 24 24 25 26 26 27 27 28 29 29 30 30 30 29 29 29 28 28 28 29 29 29 29 29 29
24 24 25 26 26 25 24 23 21 20 19 18 19 20 20 19 18 17 17 18 21 22 23 23 23 23 22 21 21 22 22 22 23 23 23 22 21 21 21 21 21 21 21 20 20 21 21 21 20 20 21 22 23 24 24 25 26 26 26 26 26 27 28 29 29 30 30 30 30 30 30 31 31 31 31 30 30 30 29 29 29 30 30 30 30
24 24 25 27 28 27 26 24 22 20 19 18 19 21 21 20 19 17 16 17 20 22 22 22 22 22 21 21 20 21 22 22 23 23 23 23 23 22 22 22 22 22 22 21 21 21 21 21 21 21 21 22 23 24 26 27 28 29 29 30 30 30 31 31 32 32 32 32 31 31 31 31 31 30 31 31 30 30 30 30 30 29 29 29 29
24 24 26 27 26 25 25 24 23 22 21 19 20 23 23 21 18 17 16 17 19 21 22 22 22 22 21 21 21 21 22 23 23 23 24 24 24 24 24 24 23 23 23 22 22 22 22 22 22 23 23 24 26 27 28 29 30 31 31 31 32 32 32 32 31 30 30 29 30 30 30 30 30 30 30 30 30 30 30 30 29 29 29 29 28
24 24 25 26 26 26 26 26 26 26 25 25 24 24 21 18 16 16 16 17 18 20 21 22 22 22 21 21 21 21 22 22 23 24 24 25 25 25 25 25 25 25 24 24 24 23 24 24 25 26 27 28 28 29 29 29 30 30 30 30 30 30 30 30 29 29 28 27 28 28 29 30 30 30 29 29 29 30 30 29 29 29 28 28 26
23 23 25 26 28 28 29 29 29 29 30 30 28 26 22 18 15 14 15 16 18 19 20 20 21 21 21 21 21 21 22 22 23 24 24 25 25 25 26 26 26 26 26 26 26 26 26 27 27 28 28 28 28 28 28 28 28 28 28 28 27 27 27 27 27 27 27 27 28 28 29 30 30 31 30 30 30 30 30 30 29 28 27 25 24
Wind_Direction
195 196 196 199 203 205 207 211 215 220 224 226 230 237 246 260 275 282 284 288 296 307 321 332 341 343 340 341 346 346 346 343 338 335 333 329 325 325 329 333 336 338 341 344 346 346 345 343 341 341 340 340 341 342 344 344 344 347 349 350 349 349 349 348 349 350 349 348 348 346 345 345 343 339 334 329 323 318 313 310 307 305 304 303 301
199 200 201 204 207 208 210 212 216 221 223 225 231 240 249 258 272 287 290 287 290 296 303 319 333 336 333 337 341 342 343 341 338 336 331 327 326 326 331 337 339 342 346 346 346 345 342 340 340 340 340 341 342 344 344 345 347 349 351 351 350 350 349 348 349 350 349 347 347 346 345 344 343 342 339 336 332 325 317 309 305 302 302 302 302
201 202 204 208 210 211 214 215 218 222 223 226 234 242 249 257 275 290 288 281 281 281 289 310 327 327 327 332 335 338 340 339 339 335 329 330 330 330 335 341 341 345 348 346 345 342 339 339 340 341 343 345 347 348 349 350 351 352 351 350 349 348 347 349 350 348 347 348 348 347 346 344 343 343 343 341 340 338 332 323 314 307 303 301 300
201 202 206 210 212 214 216 218 221 222 224 230 238 244 250 261 277 286 280 276 275 276 285 303 315 316 321 328 332 335 337 339 340 335 333 337 338 335 337 342 344 345 345 343 341 338 337 339 341 344 348 352 354 354 354 354 353 353 351 349 348 348 349 352 352 351 351 351 351 350 349 348 346 346 345 344 343 342 340 336 328 318 309 303 298
202 204 207 211 214 215 217 220 223 223 227 235 241 247 254 264 276 280 276 274 271 272 280 294 302 305 314 324 329 332 336 340 340 337 338 344 345 338 336 341 344 343 341 339 336 335 337 340 344 350 356 359 359 358 358 357 355 354 353 352 351 353 355 356 355 354 352 351 352 352 351 350 348 347 346 345 344 344 343 341 337 329 320 312 306
206 208 210 213 216 217 220 223 224 226 232 240 245 251 258 266 273 275 272 269 267 268 275 286 294 297 306 319 326 331 337 341 342 340 342 344 343 340 337 339 340 339 338 337 335 336 339 343 350 357 2 3 2 1 0 358 357 357 356 356 356 357 358 358 356 354 352 351 352 351 351 351 350 348 347 346 348 349 347 343 340 337 329 322 317
210 212 214 217 219 221 224 227 227 229 235 243 248 253 260 266 270 268 265 264 264 265 271 279 285 287 296 313 325 334 340 344 345 342 340 338 337 340 339 337 338 339 338 338 338 340 343 349 358 4 6 6 4 3 1 359 360 360 359 358 358 358 358 358 357 355 353 354 354 355 356 355 352 352 352 351 349 350 352 347 341 338 332 324 318
213 216 218 221 222 224 226 227 228 231 237 244 249 255 262 265 264 260 261 264 263 263 266 271 275 277 288 310 327 337 342 345 345 339 332 332 334 336 337 337 337 338 339 340 341 342 348 357 3 6 7 7 5 3 1 360 1 2 1 0 359 359 358 359 359 358 357 357 357 359 359 356 354 355 355 352 349 351 355 353 346 342 339 333 327
213 216 218 219 220 221 223 224 227 232 238 244 251 258 262 261 257 256 259 261 260 259 262 264 267 271 283 308 327 336 341 343 339 328 322 327 331 330 333 336 338 339 340 342 342 344 353 3 5 5 7 6 4 3 1 1 2 3 2 1 1 1 1 1 1 0 1 0 0 1 359 355 357 358 356 356 359 360 359 357 355 351 348 344 338
210 211 212 213 215 217 219 222 228 234 239 246 253 258 258 255 254 255 256 256 257 257 258 259 261 267 280 304 322 331 337 335 321 315 317 321 322 323 331 338 339 340 341 340 339 343 354 4 5 5 5 3 2 2 1 1 2 3 3 3 3 3 3 2 2 2 2 2 3 3 0 0 3 3 2 3 4 2 360 359 358 356 352 349 348
208 208 207 209 212 214 217 222 228 234 239 245 250 253 253 252 252 253 253 254 254 252 253 255 256 262 274 296 314 324 326 316 303 305 308 308 312 320 332 339 338 338 339 336 336 342 354 3 5 3 2 0 1 1 359 360 1 2 2 4 6 6 5 3 3 4 4 4 5 4 3 6 8 6 6 7 5 3 1 360 358 356 354 352 352
209 209 209 212 215 215 218 223 228 230 233 239 244 245 246 246 248 252 253 252 250 248 250 250 251 256 268 285 303 310 304 293 290 295 294 294 306 321 332 337 336 336 335 333 335 344 354 1 2 1 359 357 359 359 358 358 0 0 1 4 8 10 9 6 5 6 8 8 7 6 6 8 8 6 7 9 7 6 4 3 1 1 3 2 360
211 212 212 214 215 215 218 223 227 229 232 234 234 232 235 239 245 251 252 250 249 247 248 247 246 252 262 274 286 286 278 277 279 278 276 284 304 320 328 332 331 332 332 332 337 345 352 357 358 358 357 356 356 356 355 357 359 360 1 4 8 12 13 11 8 8 11 12 10 8 9 8 8 8 9 10 9 8 8 8 7 8 10 11 10
214 214 213 213 213 213 220 226 232 239 241 236 226 224 231 238 245 250 249 247 246 245 245 242 242 248 256 262 268 266 263 264 263 262 267 280 303 315 322 326 327 328 330 332 338 345 350 353 355 356 355 355 354 352 352 355 358 0 1 3 7 11 14 16 13 10 12 14 12 11 11 10 10 10 10 10 10 11 12 13 13 14 15 15 17
216 215 213 212 213 216 224 233 242 250 246 235 231 233 236 241 245 245 244 244 244 242 240 238 239 245 250 251 253 254 252 250 248 253 262 276 296 307 314 320 322 325 329 334 340 345 349 351 354 355 354 353 351 349 350 353 357 1 1 3 8 10 13 18 19 14 13 14 15 13 12 12 12 11 12 12 13 15 16 16 18 20 18 18 19
219 217 215 215 217 222 230 240 249 254 248 242 247 248 245 246 244 242 241 241 240 239 236 235 238 244 246 244 244 245 243 240 241 249 260 270 285 299 307 315 320 323 330 336 340 344 348 350 353 354 354 352 349 347 349 353 357 1 2 3 7 9 10 17 22 20 15 14 15 15 14 14 14 13 14 15 16 19 20 18 21 23 20 20 21
224 220 216 218 224 229 236 244 250 256 257 260 263 257 252 249 241 236 236 236 236 235 232 233 237 241 241 239 238 239 238 236 237 245 254 263 278 294 303 312 318 322 329 335 338 343 348 350 353 355 354 350 347 347 350 352 356 1 4 5 7 8 9 14 20 21 18 14 15 16 16 15 15 15 16 16 17 19 18 17 21 22 20 21 23
229 225 220 222 229 233 239 244 249 257 262 264 261 253 248 243 233 229 230 230 232 232 229 232 238 240 239 237 234 235 236 235 235 243 251 259 275 291 302 310 316 322 328 333 337 343 348 351 355 356 353 348 347 348 350 352 356 3 7 8 9 9 10 13 16 19 20 16 15 15 15 16 17 17 16 16 17 17 16 18 22 22 21 23 26
231 232 227 226 230 234 239 243 250 259 263 259 250 240 236 231 224 223 225 227 230 229 228 232 236 237 236 235 232 232 233 231 231 237 247 259 275 291 303 311 317 323 327 332 337 343 349 354 356 355 352 347 347 350 351 352 357 5 9 11 10 10 13 14 13 15 19 18 16 16 15 15 17 19 18 18 18 18 19 21 22 22 21 24 25
226 230 229 227 227 231 236 242 251 261 261 251 238 230 225 220 217 219 223 227 230 228 228 231 234 235 235 234 231 230 230 229 228 233 244 260 278 295 307 314 319 322 326 331 337 345 352 357 357 354 350 348 348 352 353 353 360 8 11 12 10 11 15 16 12 12 16 17 18 17 15 15 17 19 20 21 21 21 21 22 23 23 23 24 24
221 226 226 225 226 229 234 242 252 256 249 236 228 223 219 215 215 218 222 228 229 227 228 232 235 235 234 232 230 229 227 225 225 231 246 266 287 301 308 313 316 319 324 329 338 349 356 358 356 352 348 348 351 355 355 356 3 11 13 12 12 14 17 17 13 12 14 15 17 18 17 16 17 19 21 23 23 23 22 23 24 24 23 25 26
223 226 226 225 228 232 236 244 250 245 235 227 222 219 216 214 215 217 222 227 227 226 228 233 235 234 232 229 228 228 226 223 224 229 243 267 288 300 304 308 312 317 322 328 338 352 357 357 354 350 346 350 356 358 356 360 8 13 14 15 16 17 18 17 16 14 14 14 16 18 18 18 19 20 21 23 24 24 24 23 24 24 24 25 26
224 226 226 227 231 235 238 243 241 232 224 221 218 216 215 216 217 220 224 228 227 227 230 233 233 232 229 227 228 229 227 225 226 231 245 264 281 292 297 303 309 314 318 325 342 355 355 352 351 348 347 355 2 0 359 5 12 16 18 20 21 19 18 18 18 18 16 14 15 17 19 20 22 22 23 24 25 26 26 25 24 25 25 26 27
222 223 225 229 234 238 241 238 229 222 218 216 215 214 214 215 218 223 227 229 227 227 231 233 232 230 228 226 228 230 230 229 228 234 247 263 276 287 293 298 304 309 314 324 346 355 350 346 348 348 352 2 5 2 4 11 17 22 24 25 24 22 20 19 20 21 19 15 15 18 20 21 23 24 26 26 25 26 27 27 26 26 26 28 29
221 224 227 232 238 242 241 231 222 218 216 214 213 212 213 216 221 226 228 228 227 228 231 233 232 229 227 227 228 227 228 229 228 233 246 262 273 280 285 292 299 304 310 326 349 350 343 341 348 352 359 5 5 4 10 19 25 29 30 29 28 26 24 24 23 23 21 19 18 19 21 23 23 24 25 26 26 25 27 28 27 25 26 28 29
219 224 228 236 243 242 233 224 219 216 215 212 209 208 211 218 224 227 228 227 226 228 231 232 230 227 225 228 229 227 226 226 228 234 247 259 270 274 277 284 294 299 307 330 346 341 335 340 352 358 4 6 3 7 19 28 33 36 34 32 32 30 28 29 29 26 23 23 24 24 24 25 25 24 24 25 26 26 27 29 29 26 25 25 26
223 230 242 251 249 236 223 218 217 215 214 211 208 208 212 219 223 225 226 226 226 229 231 230 227 225 227 230 230 226 224 225 228 235 246 257 266 271 273 278 285 290 303 332 340 330 330 345 356 0 4 5 5 14 29 39 43 42 39 37 36 34 33 33 34 31 28 28 30 30 28 28 26 25 25 25 25 26 27 29 29 27 26 24 23
238 253 269 266 248 226 215 214 215 214 212 211 211 213 218 223 225 225 224 224 226 230 231 228 224 223 228 232 231 227 225 225 228 233 243 254 261 265 267 269 273 281 300 326 326 321 331 349 354 358 5 6 12 31 44 52 54 51 47 44 42 40 38 37 37 37 35 33 34 34 33 31 29 27 27 26 26 27 28 27 27 27 27 25 22
252 266 272 263 241 219 212 213 214 213 213 213 215 219 223 226 228 227 223 221 221 221 219 218 221 226 230 231 228 225 222 222 225 232 240 249 255 258 259 259 260 268 289 308 306 311 334 348 344 356 8 10 30 54 60 62 62 59 55 51 49 47 44 42 40 39 39 38 36 36 35 33 31 29 28 27 27 27 27 27 27 26 26 25 24
257 268 266 254 233 219 215 215 215 214 214 215 218 221 225 228 229 226 222 219 217 212 206 206 214 225 231 231 230 228 224 222 224 230 238 245 250 251 250 248 249 255 270 287 288 291 315 319 311 345 30 44 69 76 76 73 70 66 60 55 53 51 49 47 42 40 41 40 37 35 34 33 31 29 27 26 26 26 26 26 25 25 25 24 24
255 259 255 242 227 220 218 217 217 217 216 215 216 219 224 228 227 223 221 217 210 206 206 208 212 219 226 231 233 230 226 224 225 229 236 242 246 245 242 239 240 244 254 268 268 258 238 243 237 193 137 132 116 99 90 83 77 74 68 61 56 52 49 48 44 38 38 38 35 33 31 29 27 26 25 23 22 22 23 22 22 22 23 23 23
248 246 240 231 223 220 220 219 217 218 217 215 216 217 219 221 220 218 218 213 208 210 215 215 214 219 226 233 235 229 223 223 224 227 234 241 242 240 235 233 234 236 240 251 249 229 212 216 208 183 169 165 148 122 106 96 87 79 72 64 57 50 42 39 38 33 31 30 28 26 24 22 21 20 19 18 18 17 17 18 17 17 18 19 19
239 237 231 228 224 221 221 220 219 218 216 215 217 218 217 215 212 212 212 212 216 222 221 215 215 220 227 233 234 229 225 225 226 228 233 239 240 237 231 229 231 230 231 238 234 216 206 207 202 190 186 185 171 146 126 112 98 86 73 58 49 41 33 26 23 22 22 20 17 15 14 13 13 12 11 11 11 11 11 11 12 12 12 13 14
237 235 229 227 225 222 221 221 218 216 214 213 215 217 216 213 211 210 210 214 223 229 223 219 222 225 228 232 233 229 226 226 228 230 233 237 238 233 227 226 227 225 225 229 226 214 205 204 203 198 197 197 190 174 153 134 114 93 67 45 30 22 19 14 9 9 11 9 6 4 3 2 2 2 2 1 2 4 5 5 6 7 6 7 9
233 236 233 229 224 218 216 216 214 213 212 212 213 213 213 213 213 213 215 220 225 225 222 225 232 233 230 231 232 229 226 226 228 231 235 238 237 230 224 224 224 221 220 224 223 217 209 206 205 205 205 207 205 197 187 174 154 126 22 4 359 355 357 358 356 357 358 357 355 353 353 353 352 352 352 353 353 355 356 356 359 1 1 0 3
237 239 235 229 223 216 211 209 209 209 210 212 214 214 213 212 214 218 223 228 230 226 221 224 231 233 231 230 229 226 225 226 228 232 237 238 235 228 223 223 222 219 217 219 220 218 214 211 211 211 212 214 216 214 214 216 217 239 283 309 322 329 335 339 340 341 343 343 344 342 341 343 344 343 343 344 344 346 347 347 349 353 355 354 355
249 247 237 227 220 214 209 205 204 206 210 213 214 214 214 214 216 222 228 234 238 234 227 224 226 228 230 230 228 226 226 228 229 233 238 238 234 229 224 223 222 218 216 217 218 218 217 216 215 217 220 224 228 230 233 238 245 258 276 292 303 309 317 322 323 325 328 329 331 332 331 332 334 334 335 335 336 337 339 339 340 343 346 347 347
252 252 241 227 217 211 208 205 203 206 211 214 215 214 215 216 220 227 235 240 241 236 230 226 224 225 228 229 227 225 226 228 230 234 238 238 235 230 226 224 223 220 218 218 218 219 220 221 223 225 228 233 238 243 246 250 256 265 275 285 293 298 303 307 308 311 314 315 317 320 321 322 324 325 326 327 328 329 330 331 332 334 335 338 338
244 245 238 226 216 210 208 206 206 208 213 216 217 216 216 219 225 233 242 245 239 232 227 224 222 225 228 229 226 225 226 227 229 232 236 237 236 232 228 226 225 223 221 222 222 221 222 226 230 232 236 241 245 250 253 256 262 268 273 280 286 290 294 298 299 301 303 305 307 310 312 313 314 316 318 319 320 321 322 323 324 325 326 328 329
236 236 232 223 214 210 208 207 207 211 215 218 219 219 221 226 234 242 246 243 235 228 224 222 222 226 230 230 228 228 227 226 227 229 232 235 236 234 230 228 228 226 224 224 225 225 227 231 234 237 242 246 250 253 257 261 264 268 273 278 282 286 289 292 294 296 297 299 301 303 305 306 308 309 310 312 314 314 314 315 317 318 319 320 321
231 224 218 216 213 210 208 209 210 213 217 218 219 221 226 233 240 244 244 239 231 224 222 221 223 227 230 230 230 229 228 227 228 230 232 234 236 235 233 231 230 229 228 227 228 228 229 234 238 241 245 250 253 256 259 263 266 269 272 276 279 283 286 288 291 293 294 295 297 299 300 301 303 304 305 307 308 309 309 309 311 312 313 313 314
233 220 207 205 209 208 208 211 214 216 218 219 220 224 230 236 238 240 240 238 231 224 221 221 224 228 230 231 232 231 230 231 232 233 235 237 238 238 236 234 234 235 235 235 234 233 233 236 241 244 249 253 256 259 261 264 266 269 272 274 277 280 283 286 288 290 291 293 294 296 297 297 298 300 301 302 303 304 304 305 306 307 307 308 308
233 223 207 201 205 207 206 209 213 216 218 221 224 228 232 234 234 236 238 236 230 224 221 222 225 229 231 233 234 234 234 235 235 235 237 239 240 240 238 236 236 237 238 239 241 241 241 241 244 248 252 256 259 262 265 267 268 270 272 274 277 279 281 284 286 287 289 291 292 293 293 294 295 296 297 298 299 300 300 300 301 301 302 303 303
229 222 210 202 202 204 204 205 208 212 218 223 227 230 231 230 231 235 237 234 228 223 222 223 226 229 232 234 235 236 238 238 238 238 239 240 242 242 241 240 239 238 239 240 242 244 246 247 249 251 254 258 261 264 267 269 271 272 273 275 277 279 281 282 284 286 287 289 290 292 292 292 293 293 294 295 295 296 296 297 297 297 298 298 298
232 224 218 212 207 203 203 203 205 211 219 225 227 227 226 227 231 235 236 232 227 223 222 224 227 231 234 235 236 238 239 239 239 239 239 241 242 243 244 244 244 244 243 243 243 245 248 251 253 255 258 262 264 267 269 271 273 274 277 279 281 282 284 284 285 286 287 288 289 291 292 292 293 293 293 293 294 294 294 295 295 296 296 296 296
232 226 224 221 215 208 205 206 209 215 221 224 224 222 222 224 229 233 233 230 226 224 224 225 228 231 235 236 237 238 239 239 238 239 239 241 243 244 245 247 248 249 250 250 250 251 253 254 256 258 261 264 267 269 271 274 275 277 278 280 282 283 285 286 287 288 289 290 290 290 291 292 293 293 293 293 293 293 294 294 295 295 295 295 295
230 224 220 219 217 212 210 211 214 216 217 217 217 218 218 219 223 227 228 226 224 223 224 226 228 231 235 237 237 239 240 241 240 240 240 241 243 245 246 247 249 250 252 253 254 255 256 257 259 261 263 265 268 271 274 276 277 278 279 280 281 282 283 284 286 287 288 289 289 290 290 291 291 292 292 292 292 293 293 293 293 294 295 295 295
229 225 220 218 218 217 216 218 217 213 209 209 213 216 216 216 218 220 220 219 220 221 223 225 229 233 237 240 241 241 242 242 243 244 244 245 246 247 248 248 248 249 250 251 253 255 258 260 262 264 265 268 270 272 274 276 277 279 280 281 282 283 283 284 284 284 285 285 285 286 287 287 287 288 289 289 290 292 292 293 293 294 294 294 296
230 229 223 220 221 223 224 224 220 211 204 204 211 216 217 215 216 219 218 217 218 220 222 225 228 232 236 240 242 243 243 243 243 245 246 248 249 250 251 252 252 252 252 253 255 257 260 263 265 267 270 272 273 274 275 276 277 278 280 281 282 282 283 283 283 283 282 282 282 283 283 284 284 284 285 286 287 288 289 290 291 292 293 294 295
228 229 226 223 223 224 225 224 219 211 205 205 208 212 213 211 213 218 219 218 219 222 224 225 228 232 236 240 242 243 244 244 244 244 246 247 249 251 253 254 255 255 256 257 259 262 264 267 269 271 272 272 273 273 273 273 274 275 276 278 279 281 281 281 282 282 282 282 282 282 282 283 283 283 283 284 284 285 286 287 288 289 290 291 292
226 227 226 224 224 225 225 225 221 215 211 209 210 211 209 206 208 216 219 218 219 221 223 225 229 234 239 243 245 246 248 248 248 248 249 249 250 252 254 255 257 259 260 261 263 265 267 268 269 270 270 270 270 269 269 270 271 273 275 276 278 280 281 281 282 283 283 284 284 284 284 284 284 284 284 284 285 285 285 286 287 288 287 286 286
Height
3139 3141 3143 3145 3147 3149 3150 3152 3153 3154 3155 3156 3156 3156 3156 3157 3157 3157 3156 3156 3156 3156 3156 3155 3154 3153 3152 3152 3151 3150 3150 3149 3148 3146 3144 3142 3140 3137 3136 3134 3133 3131 3130 3129 3128 3127 3126 3124 3123 3122 3120 3118 3116 3114 3111 3109 3107 3105 3103 3101 3098 3096 3094 3092 3089 3087 3084 3082 3080 3077 3075 3072 3070 3068 3066 3064 3062 3061 3059 3057 3056 3055 3053 3052 3050
3138 3140 3142 3144 3146 3148 3149 3150 3152 3153 3154 3154 3154 3154 3155 3155 3155 3155 3155 3155 3155 3155 3155 3154 3153 3152 3151 3151 3150 3150 3149 3148 3147 3145 3143 3141 3139 3136 3135 3134 3132 3131 3130 3129 3128 3127 3125 3124 3123 3122 3120 3118 3116 3114 3111 3109 3107 3105 3103 3101 3098 3096 3094 3092 3090 3087 3085 3082 3080 3077 3075 3072 3070 3068 3066 3064 3062 3060 3058 3056 3054 3053 3051 3050 3048
3136 3138 3140 3142 3144 3146 3148 3149 3150 3151 3152 3153 3153 3153 3154 3154 3154 3154 3154 3154 3154 3154 3153 3153 3152 3152 3151 3150 3149 3149 3148 3147 3146 3144 3142 3140 3138 3135 3134 3134 3132 3131 3130 3129 3128 3126 3125 3124 3122 3121 3119 3118 3115 3113 3111 3109 3107 3105 3102 3100 3098 3096 3094 3092 3089 3087 3085 3082 3080 3077 3075 3072 3069 3067 3065 3062 3061 3059 3056 3054 3052 3050 3049 3047 3046
3135 3137 3139 3141 3143 3145 3146 3148 3149 3150 3151 3151 3151 3152 3152 3153 3153 3153 3153 3153 3153 3152 3152 3151 3151 3151 3150 3150 3148 3147 3147 3146 3144 3143 3141 3139 3137 3135 3134 3134 3132 3131 3130 3128 3127 3126 3125 3124 3122 3121 3119 3117 3115 3113 3111 3109 3107 3104 3102 3100 3098 3096 3094 3091 3089 3086 3084 3081 3079 3076 3074 3071 3069 3066 3064 3061 3059 3057 3055 3053 3051 3048 3046 3045 3044
3134 3136 3138 3140 3142 3144 3145 3147 3148 3149 3149 3149 3150 3151 3151 3152 3152 3152 3151 3151 3151 3150 3150 3150 3150 3150 3150 3149 3148 3147 3145 3144 3142 3141 3139 3138 3137 3136 3135 3134 3132 3131 3130 3128 3127 3126 3125 3123 3122 3120 3118 3117 3115 3113 3111 3109 3107 3104 3102 3100 3098 3096 3093 3091 3089 3086 3084 3081 3079 3076 3074 3071 3069 3066 3064 3062 3059 3056 3054 3052 3050 3047 3045 3042 3041
3133 3135 3137 3139 3141 3143 3144 3145 3147 3148 3148 3148 3149 3149 3150 3150 3150 3150 3150 3149 3149 3149 3149 3149 3149 3149 3149 3148 3147 3146 3144 3143 3141 3139 3138 3137 3136 3136 3135 3134 3132 3131 3130 3129 3127 3126 3125 3123 3121 3120 3118 3117 3115 3113 3111 3109 3107 3105 3103 3100 3098 3096 3094 3091 3089 3086 3084 3081 3079 3077 3074 3072 3069 3067 3064 3062 3059 3057 3054 3051 3048 3046 3044 3041 3039
3131 3133 3135 3137 3139 3141 3143 3144 3145 3146 3146 3146 3147 3148 3148 3149 3149 3148 3148 3148 3148 3148 3147 3148 3148 3148 3148 3147 3146 3144 3143 3141 3140 3138 3137 3137 3136 3136 3135 3134 3132 3131 3130 3129 3127 3126 3125 3123 3121 3119 3118 3117 3115 3113 3112 3110 3107 3105 3103 3101 3098 3096 3094 3092 3089 3087 3084 3081 3079 3076 3074 3071 3069 3067 3064 3061 3059 3057 3055 3052 3049 3046 3043 3041 3038
3130 3132 3134 3135 3137 3139 3141 3142 3143 3144 3144 3144 3145 3146 3147 3147 3147 3147 3146 3146 3146 3146 3146 3146 3147 3147 3147 3146 3144 3143 3141 3140 3138 3138 3137 3136 3136 3135 3134 3133 3132 3131 3130 3129 3128 3126 3125 3123 3121 3119 3118 3117 3115 3114 3112 3110 3108 3106 3103 3101 3099 3096 3094 3092 3089 3087 3084 3082 3079 3076 3074 3072 3069 3067 3064 3062 3059 3056 3054 3051 3048 3045 3042 3040 3038
3128 3130 3131 3133 3135 3137 3138 3140 3141 3141 3142 3143 3143 3145 3145 3145 3145 3145 3145 3144 3144 3145 3145 3145 3145 3145 3145 3144 3143 3141 3140 3138 3137 3137 3136 3136 3136 3135 3134 3133 3132 3130 3130 3129 3128 3127 3125 3123 3121 3119 3118 3117 3115 3114 3112 3110 3108 3106 3104 3101 3099 3097 3094 3091 3089 3087 3084 3082 3079 3077 3074 3072 3069 3066 3063 3060 3057 3055 3052 3050 3047 3044 3041 3038 3036
3126 3128 3129 3131 3133 3134 3136 3137 3138 3139 3140 3141 3142 3143 3143 3143 3143 3143 3143 3143 3143 3143 3143 3144 3144 3144 3143 3142 3141 3140 3138 3137 3137 3136 3136 3135 3135 3134 3133 3132 3131 3130 3130 3129 3128 3127 3125 3123 3121 3120 3118 3117 3116 3114 3112 3110 3108 3106 3104 3102 3099 3097 3094 3091 3089 3086 3084 3082 3079 3077 3074 3071 3067 3064 3062 3059 3056 3054 3052 3049 3047 3044 3041 3038 3035
3125 3126 3127 3129 3131 3132 3134 3135 3136 3137 3138 3139 3140 3141 3141 3142 3142 3142 3142 3142 3142 3142 3142 3142 3142 3142 3142 3141 3139 3138 3137 3136 3136 3135 3135 3135 3134 3134 3133 3132 3131 3130 3130 3129 3128 3126 3124 3123 3121 3120 3119 3117 3116 3114 3112 3110 3108 3106 3104 3102 3100 3097 3094 3091 3089 3086 3084 3081 3079 3076 3074 3071 3068 3065 3062 3060 3057 3054 3051 3048 3046 3044 3041 3038 3035
3123 3124 3126 3127 3129 3130 3132 3132 3133 3134 3135 3137 3138 3139 3140 3140 3140 3140 3140 3140 3140 3140 3140 3141 3141 3140 3140 3139 3138 3137 3136 3136 3135 3135 3135 3134 3134 3133 3132 3132 3131 3130 3130 3129 3127 3126 3124 3122 3121 3120 3119 3117 3115 3114 3112 3110 3108 3106 3104 3102 3100 3097 3095 3092 3089 3087 3084 3082 3079 3077 3074 3071 3068 3066 3063 3060 3057 3055 3052 3049 3046 3042 3039 3036 3033
3121 3123 3124 3126 3127 3129 3130 3130 3131 3132 3133 3135 3136 3137 3138 3138 3138 3138 3138 3138 3138 3138 3139 3139 3139 3139 3138 3137 3137 3136 3135 3135 3134 3134 3134 3134 3133 3132 3132 3131 3131 3130 3129 3128 3127 3125 3124 3122 3121 3120 3118 3117 3115 3113 3112 3110 3108 3106 3104 3101 3099 3097 3095 3092 3089 3087 3084 3082 3080 3077 3074 3071 3069 3066 3063 3060 3058 3056 3052 3049 3046 3042 3038 3036 3033
3120 3121 3123 3124 3126 3128 3128 3128 3129 3130 3132 3133 3134 3135 3136 3136 3136 3136 3136 3136 3136 3136 3137 3137 3137 3137 3137 3136 3135 3135 3134 3134 3134 3134 3133 3133 3132 3132 3131 3131 3130 3130 3129 3128 3126 3125 3123 3122 3121 3119 3118 3116 3115 3113 3112 3110 3108 3106 3103 3101 3099 3097 3095 3093 3090 3087 3085 3083 3080 3077 3074 3072 3069 3066 3064 3061 3059 3056 3052 3049 3046 3042 3039 3036 3033
3118 3120 3122 3123 3125 3126 3126 3126 3127 3129 3130 3131 3132 3133 3134 3134 3134 3134 3134 3134 3134 3134 3135 3135 3135 3135 3135 3135 3134 3134 3133 3133 3133 3133 3133 3132 3132 3131 3131 3130 3130 3129 3128 3127 3126 3124 3123 3121 3120 3119 3118 3116 3115 3113 3112 3110 3108 3106 3103 3101 3099 3097 3096 3093 3090 3087 3085 3083 3081 3078 3076 3073 3071 3068 3065 3062 3060 3056 3053 3051 3048 3044 3041 3039 3036
3117 3119 3121 3122 3123 3124 3124 3125 3126 3127 3128 3129 3129 3130 3131 3131 3131 3132 3132 3132 3132 3133 3133 3133 3134 3134 3134 3133 3133 3133 3132 3132 3132 3132 3132 3131 3131 3131 3130 3130 3129 3129 3128 3127 3125 3124 3123 3121 3120 3119 3118 3116 3115 3113 3111 3110 3108 3105 3103 3101 3099 3097 3095 3093 3091 3088 3086 3084 3082 3080 3077 3075 3073 3070 3068 3065 3062 3059 3057 3055 3051 3048 3045 3043 3039
3114 3116 3117 3119 3120 3121 3122 3123 3124 3125 3125 3126 3126 3127 3128 3128 3129 3129 3130 3130 3131 3131 3131 3132 3132 3132 3132 3132 3132 3131 3131 3131 3131 3131 3131 3131 3130 3130 3130 3129 3129 3128 3127 3126 3125 3124 3123 3122 3120 3119 3117 3116 3114 3113 3111 3109 3107 3105 3103 3101 3098 3097 3095 3093 3091 3089 3087 3085 3083 3081 3079 3077 3074 3072 3070 3067 3065 3062 3060 3057 3053 3050 3047 3043 3039
3111 3113 3115 3117 3118 3119 3120 3121 3122 3122 3123 3124 3124 3124 3125 3126 3127 3127 3128 3128 3129 3129 3130 3130 3131 3131 3131 3131 3130 3130 3130 3130 3130 3130 3130 3130 3130 3129 3129 3129 3128 3127 3127 3126 3125 3123 3122 3121 3120 3118 3117 3116 3114 3113 3111 3109 3107 3105 3103 3101 3098 3097 3094 3092 3091 3090 3088 3086 3084 3082 3080 3078 3076 3074 3071 3069 3066 3064 3061 3057 3054 3052 3048 3044 3041
3110 3112 3114 3115 3115 3116 3118 3119 3120 3120 3121 3121 3121 3122 3123 3124 3125 3126 3126 3127 3127 3128 3128 3129 3129 3129 3129 3129 3129 3129 3129 3129 3129 3129 3129 3129 3128 3128 3128 3128 3127 3127 3126 3125 3124 3123 3122 3121 3119 3118 3117 3115 3114 3112 3111 3109 3107 3105 3103 3101 3099 3097 3095 3093 3091 3090 3089 3087 3085 3083 3081 3079 3077 3075 3073 3070 3067 3065 3061 3058 3056 3053 3050 3046 3044
3109 3110 3111 3112 3113 3114 3116 3117 3117 3118 3118 3118 3119 3120 3121 3122 3123 3124 3124 3125 3125 3126 3127 3127 3127 3128 3128 3128 3128 3128 3128 3128 3128 3128 3128 3127 3127 3127 3127 3127 3126 3126 3125 3124 3123 3122 3121 3120 3119 3118 3116 3115 3113 3112 3110 3109 3107 3105 3103 3101 3100 3098 3096 3094 3093 3091 3090 3088 3087 3085 3083 3080 3079 3077 3074 3072 3069 3066 3063 3060 3057 3054 3051 3048 3045
3106 3106 3107 3109 3110 3112 3113 3114 3114 3115 3115 3116 3116 3117 3119 3120 3121 3122 3122 3123 3123 3124 3125 3125 3126 3126 3126 3127 3127 3127 3127 3127 3127 3127 3127 3126 3126 3126 3126 3126 3125 3125 3124 3123 3122 3121 3120 3119 3118 3117 3116 3115 3113 3112 3110 3109 3107 3104 3103 3101 3100 3098 3097 3095 3094 3092 3090 3089 3088 3086 3084 3082 3080 3078 3075 3073 3070 3067 3064 3062 3059 3056 3053 3050 3047
3102 3103 3104 3107 3108 3109 3110 3111 3112 3112 3113 3113 3114 3115 3116 3117 3119 3119 3120 3121 3121 3122 3123 3124 3124 3125 3125 3125 3126 3126 3126 3126 3126 3126 3126 3125 3125 3125 3125 3125 3125 3124 3124 3123 3122 3121 3120 3119 3118 3117 3115 3114 3113 3112 3110 3109 3107 3105 3103 3102 3100 3098 3097 3096 3095 3093 3091 3090 3088 3087 3085 3083 3081 3078 3076 3074 3071 3069 3066 3063 3060 3058 3055 3052 3049
3099 3101 3102 3104 3105 3106 3107 3108 3109 3109 3110 3111 3112 3113 3114 3115 3117 3118 3118 3119 3120 3121 3122 3122 3123 3123 3124 3124 3125 3125 3125 3125 3125 3125 3125 3124 3125 3124 3124 3124 3124 3124 3123 3122 3121 3120 3119 3118 3117 3116 3115 3114 3112 3111 3110 3108 3106 3105 3103 3102 3100 3099 3098 3097 3095 3094 3092 3091 3089 3088 3086 3084 3082 3080 3077 3075 3073 3070 3067 3065 3062 3059 3057 3054 3051
3097 3098 3100 3101 3102 3103 3104 3105 3106 3106 3107 3108 3110 3111 3112 3114 3115 3116 3116 3117 3118 3119 3120 3121 3121 3122 3122 3123 3123 3124 3124 3124 3124 3124 3124 3123 3124 3124 3124 3123 3123 3123 3122 3121 3120 3119 3118 3118 3117 3115 3114 3113 3112 3111 3110 3108 3107 3105 3104 3102 3101 3100 3099 3097 3096 3095 3093 3092 3090 3089 3087 3085 3083 3081 3079 3076 3074 3072 3070 3067 3064 3062 3059 3057 3054
3095 3096 3097 3098 3099 3100 3101 3102 3103 3104 3105 3106 3108 3109 3111 3112 3113 3114 3115 3116 3116 3117 3118 3119 3119 3120 3121 3122 3122 3123 3123 3123 3123 3122 3122 3122 3123 3123 3123 3123 3122 3122 3121 3120 3119 3118 3118 3117 3116 3115 3114 3113 3112 3112 3110 3109 3107 3105 3104 3103 3102 3101 3099 3098 3097 3096 3094 3093 3091 3089 3087 3085 3083 3081 3080 3078 3076 3074 3072 3069 3067 3064 3062 3059 3057
3092 3093 3094 3095 3096 3097 3098 3099 3100 3101 3102 3104 3106 3107 3109 3110 3111 3112 3113 3113 3114 3115 3116 3117 3118 3119 3119 3120 3121 3121 3122 3121 3121 3121 3121 3121 3122 3122 3122 3122 3121 3121 3120 3119 3118 3118 3117 3116 3115 3114 3113 3112 3112 3111 3110 3109 3107 3106 3104 3103 3102 3101 3100 3099 3098 3097 3095 3094 3092 3090 3088 3086 3084 3082 3081 3079 3078 3076 3073 3071 3069 3066 3064 3061 3059
3089 3089 3090 3092 3093 3094 3095 3096 3097 3099 3100 3102 3103 3105 3106 3107 3108 3109 3110 3111 3113 3114 3114 3115 3116 3117 3118 3119 3120 3120 3120 3120 3120 3120 3120 3120 3121 3121 3121 3121 3120 3120 3119 3118 3118 3117 3116 3115 3114 3114 3113 3112 3112 3111 3110 3109 3107 3106 3105 3104 3103 3102 3101 3100 3099 3098 3096 3094 3093 3091 3089 3087 3085 3084 3082 3081 3079 3077 3075 3073 3071 3069 3066 3063 3061
3087 3087 3088 3090 3091 3092 3093 3094 3095 3097 3099 3100 3101 3103 3104 3105 3106 3107 3108 3110 3111 3112 3113 3114 3115 3117 3118 3118 3119 3119 3119 3119 3119 3119 3119 3120 3120 3120 3120 3120 3119 3119 3118 3117 3117 3116 3115 3115 3114 3113 3113 3112 3112 3111 3110 3109 3107 3106 3106 3105 3104 3103 3102 3101 3100 3098 3097 3095 3093 3092 3090 3089 3087 3086 3084 3082 3080 3078 3076 3074 3072 3070 3067 3065 3062
3084 3085 3087 3088 3089 3090 3091 3092 3094 3095 3097 3098 3099 3101 3102 3103 3105 3106 3107 3108 3109 3110 3112 3113 3115 3116 3117 3117 3117 3117 3117 3117 3117 3118 3118 3119 3119 3119 3119 3119 3118 3118 3117 3117 3116 3115 3115 3114 3114 3113 3113 3112 3112 3111 3110 3109 3108 3107 3106 3105 3105 3104 3103 3101 3100 3099 3097 3096 3095 3093 3092 3090 3089 3087 3085 3083 3081 3079 3077 3075 3073 3071 3069 3067 3065
3082 3083 3085 3086 3087 3088 3089 3090 3092 3094 3095 3096 3098 3099 3101 3102 3103 3104 3105 3106 3107 3108 3109 3111 3113 3115 3115 3115 3115 3116 3116 3116 3116 3117 3117 3118 3118 3118 3118 3117 3117 3117 3116 3116 3115 3114 3114 3114 3113 3113 3113 3112 3112 3111 3110 3109 3108 3107 3106 3106 3105 3104 3103 3102 3101 3100 3098 3097 3096 3094 3093 3091 3090 3088 3086 3085 3083 3081 3079 3077 3075 3073 3071 3069 3067
3080 3081 3083 3084 3085 3086 3087 3089 3090 3092 3093 3094 3096 3097 3099 3100 3101 3102 3103 3104 3105 3106 3107 3109 3111 3112 3113 3113 3114 3115 3115 3115 3115 3116 3116 3117 3117 3117 3117 3116 3116 3116 3115 3115 3114 3114 3113 3113 3113 3113 3113 3112 3112 3111 3110 3109 3108 3107 3107 3106 3106 3105 3104 3103 3102 3101 3099 3098 3096 3095 3094 3092 3091 3089 3088 3086 3084 3082 3080 3078 3077 3075 3073 3071 3068
3078 3079 3080 3082 3083 3084 3085 3087 3088 3090 3091 3092 3094 3095 3097 3098 3099 3100 3101 3102 3103 3104 3106 3107 3109 3110 3110 3111 3113 3113 3113 3114 3114 3115 3115 3115 3115 3115 3115 3115 3115 3114 3114 3113 3113 3113 3113 3113 3113 3112 3112 3112 3112 3111 3110 3109 3108 3108 3107 3107 3106 3105 3104 3103 3102 3101 3100 3098 3097 3096 3094 3093 3091 3090 3088 3087 3085 3083 3082 3080 3078 3076 3074 3072 3070
3076 3076 3078 3079 3080 3081 3083 3085 3086 3088 3089 3091 3092 3093 3095 3096 3097 3098 3100 3101 3102 3103 3103 3105 3107 3108 3109 3110 3111 3112 3112 3112 3113 3113 3114 3114 3114 3114 3114 3113 3113 3113 3113 3113 3112 3112 3112 3112 3112 3112 3112 3112 3111 3111 3110 3109 3108 3108 3107 3107 3106 3105 3105 3104 3103 3101 3100 3099 3098 3096 3095 3093 3092 3090 3089 3087 3086 3084 3082 3081 3079 3077 3075 3073 3071
3073 3074 3075 3076 3077 3079 3081 3083 3084 3086 3087 3089 3090 3092 3093 3094 3095 3096 3098 3099 3101 3101 3102 3103 3104 3105 3106 3108 3109 3110 3110 3111 3111 3112 3112 3112 3112 3112 3112 3112 3112 3112 3112 3112 3111 3111 3112 3112 3112 3111 3111 3111 3111 3110 3109 3109 3108 3107 3107 3107 3106 3105 3104 3103 3102 3101 3100 3099 3098 3096 3095 3093 3092 3091 3089 3088 3086 3084 3083 3081 3079 3078 3076 3074 3072
3071 3072 3073 3073 3075 3076 3078 3080 3082 3083 3085 3086 3088 3089 3090 3091 3092 3094 3095 3097 3099 3100 3101 3102 3102 3103 3105 3107 3108 3108 3109 3109 3110 3110 3110 3110 3111 3111 3111 3111 3111 3111 3110 3110 3111 3111 3111 3111 3111 3111 3111 3111 3110 3110 3109 3108 3107 3107 3107 3106 3106 3105 3104 3103 3102 3101 3100 3099 3097 3096 3095 3093 3092 3090 3089 3088 3086 3084 3083 3081 3080 3078 3076 3074 3073
3068 3070 3070 3071 3072 3074 3076 3077 3079 3081 3083 3084 3086 3087 3088 3089 3090 3092 3093 3094 3096 3097 3099 3100 3101 3102 3103 3105 3106 3106 3107 3107 3108 3108 3108 3109 3109 3109 3109 3109 3109 3109 3109 3109 3110 3110 3110 3110 3110 3110 3110 3110 3110 3109 3108 3107 3107 3106 3106 3105 3105 3104 3103 3102 3101 3100 3099 3098 3097 3096 3094 3093 3092 3090 3089 3087 3086 3084 3083 3081 3079 3078 3076 3074 3073
3066 3067 3068 3068 3070 3071 3073 3075 3076 3078 3080 3082 3083 3084 3085 3086 3087 3089 3091 3092 3093 3094 3096 3097 3098 3100 3102 3103 3104 3105 3105 3105 3106 3106 3107 3107 3107 3107 3107 3107 3108 3108 3108 3108 3108 3109 3109 3109 3109 3109 3109 3109 3109 3108 3108 3107 3106 3105 3105 3104 3104 3103 3102 3101 3100 3099 3098 3097 3096 3095 3094 3092 3091 3089 3088 3086 3085 3083 3082 3080 3079 3077 3076 3074 3072
3063 3065 3066 3066 3067 3069 3071 3072 3074 3075 3077 3079 3080 3081 3082 3084 3085 3087 3088 3089 3091 3092 3093 3094 3096 3098 3099 3101 3102 3102 3103 3103 3104 3105 3105 3105 3105 3105 3105 3106 3106 3106 3106 3107 3107 3107 3107 3108 3108 3108 3108 3108 3108 3107 3106 3106 3105 3104 3103 3103 3102 3102 3101 3100 3099 3098 3097 3096 3095 3093 3092 3091 3090 3088 3087 3086 3084 3083 3081 3080 3078 3076 3075 3073 3072
3061 3062 3063 3064 3065 3067 3068 3070 3071 3073 3075 3076 3078 3079 3080 3081 3083 3084 3086 3087 3088 3089 3090 3092 3094 3096 3097 3098 3099 3100 3101 3101 3102 3102 3103 3103 3103 3103 3103 3104 3104 3104 3104 3105 3105 3105 3106 3106 3106 3107 3107 3107 3106 3106 3105 3104 3103 3102 3102 3101 3100 3100 3099 3098 3097 3096 3095 3094 3093 3092 3091 3089 3088 3087 3086 3084 3083 3081 3080 3078 3077 3076 3074 3072 3071
3057 3059 3059 3061 3062 3064 3066 3067 3069 3071 3072 3074 3076 3077 3078 3080 3081 3082 3083 3085 3086 3087 3088 3090 3092 3094 3095 3096 3097 3098 3098 3099 3100 3100 3100 3101 3101 3101 3101 3102 3102 3102 3102 3103 3103 3103 3104 3104 3104 3105 3105 3105 3104 3104 3103 3102 3101 3101 3100 3099 3099 3098 3097 3096 3095 3094 3093 3092 3091 3090 3089 3087 3086 3085 3084 3082 3081 3080 3078 3077 3075 3074 3073 3071 3070
3053 3054 3055 3057 3060 3061 3063 3065 3067 3069 3070 3072 3073 3075 3076 3077 3079 3080 3081 3082 3083 3084 3086 3088 3089 3091 3092 3093 3094 3095 3096 3096 3097 3097 3098 3098 3099 3099 3099 3100 3100 3100 3100 3100 3101 3101 3101 3102 3102 3102 3102 3102 3102 3102 3101 3100 3099 3098 3098 3097 3096 3096 3095 3094 3093 3092 3091 3090 3088 3087 3086 3085 3084 3083 3081 3080 3079 3078 3076 3075 3073 3072 3071 3069 3068
3050 3051 3052 3054 3056 3058 3060 3063 3065 3067 3068 3069 3071 3072 3074 3075 3076 3077 3078 3080 3081 3082 3083 3085 3086 3088 3089 3091 3092 3092 3093 3094 3094 3095 3095 3096 3096 3097 3097 3097 3098 3098 3098 3098 3098 3099 3099 3099 3099 3099 3099 3099 3099 3099 3098 3098 3097 3096 3095 3095 3094 3093 3092 3091 3090 3089 3088 3087 3086 3085 3084 3082 3081 3080 3079 3077 3076 3075 3074 3072 3071 3069 3068 3067 3065
3049 3049 3050 3050 3052 3055 3057 3060 3062 3064 3065 3067 3068 3070 3071 3072 3074 3075 3076 3077 3078 3079 3080 3082 3084 3085 3087 3088 3089 3089 3090 3091 3092 3093 3093 3094 3094 3095 3095 3095 3095 3095 3096 3096 3096 3096 3096 3096 3096 3097 3097 3096 3096 3096 3095 3095 3094 3093 3093 3092 3091 3090 3090 3089 3088 3087 3085 3084 3083 3082 3081 3080 3078 3077 3076 3075 3073 3072 3071 3069 3068 3067 3065 3064 3063
3045 3047 3047 3047 3048 3051 3054 3056 3059 3061 3063 3064 3065 3067 3068 3070 3071 3072 3073 3074 3075 3076 3078 3079 3081 3083 3084 3085 3086 3087 3088 3089 3090 3090 3091 3091 3092 3092 3092 3092 3092 3093 3093 3093 3093 3093 3093 3093 3093 3093 3093 3093 3093 3093 3092 3091 3091 3090 3089 3089 3088 3087 3087 3086 3085 3084 3083 3081 3080 3079 3078 3077 3075 3074 3073 3072 3070 3069 3068 3066 3065 3064 3062 3061 3060
3042 3044 3045 3046 3047 3048 3051 3053 3056 3058 3059 3060 3062 3064 3066 3067 3069 3070 3070 3071 3072 3074 3075 3077 3078 3080 3081 3082 3084 3085 3086 3086 3087 3088 3088 3089 3089 3089 3090 3090 3090 3090 3090 3090 3090 3090 3090 3090 3090 3090 3090 3090 3089 3089 3089 3088 3087 3087 3086 3085 3084 3084 3083 3082 3082 3081 3080 3078 3077 3075 3074 3073 3072 3071 3070 3068 3067 3066 3064 3063 3062 3060 3059 3058 3057
3039 3041 3043 3046 3046 3047 3049 3050 3052 3054 3055 3057 3059 3061 3064 3065 3066 3067 3068 3069 3070 3071 3073 3074 3076 3077 3078 3080 3081 3082 3083 3083 3084 3085 3085 3086 3086 3086 3086 3087 3087 3087 3087 3087 3087 3087 3087 3087 3087 3087 3086 3086 3086 3085 3085 3084 3084 3083 3082 3081 3080 3080 3079 3078 3077 3077 3076 3075 3073 3072 3070 3069 3068 3067 3066 3065 3063 3062 3061 3060 3058 3057 3056 3054 3053
3036 3038 3040 3042 3043 3044 3045 3047 3049 3050 3052 3054 3056 3059 3060 3062 3063 3064 3065 3066 3067 3069 3070 3072 3073 3074 3076 3077 3078 3079 3080 3080 3081 3082 3082 3082 3083 3083 3083 3083 3083 3084 3084 3084 3084 3083 3083 3083 3083 3083 3083 3082 3082 3081 3081 3080 3079 3079 3078 3077 3076 3076 3075 3074 3073 3072 3071 3070 3069 3068 3066 3065 3064 3063 3061 3060 3059 3058 3057 3056 3054 3053 3052 3050 3049
3034 3035 3037 3038 3039 3041 3042 3044 3045 3046 3048 3051 3053 3055 3056 3058 3059 3061 3062 3064 3065 3067 3068 3069 3071 3072 3073 3074 3075 3076 3077 3077 3078 3078 3079 3079 3079 3080 3080 3080 3080 3080 3080 3080 3080 3080 3080 3080 3080 3079 3079 3079 3078 3078 3077 3076 3075 3074 3073 3072 3071 3071 3070 3069 3068 3067 3066 3065 3064 3063 3062 3061 3059 3058 3057 3055 3054 3053 3052 3051 3050 3049 3048 3046 3045
3031 3033 3034 3036 3037 3038 3040 3041 3042 3044 3045 3047 3049 3051 3053 3055 3056 3058 3059 3061 3062 3064 3066 3067 3068 3069 3070 3071 3072 3073 3074 3074 3075 3075 3075 3076 3076 3076 3076 3076 3077 3076 3076 3076 3076 3076 3076 3076 3076 3075 3075 3075 3074 3073 3073 3072 3071 3069 3068 3067 3066 3065 3064 3063 3063 3062 3061 3060 3059 3058 3057 3056 3055 3054 3052 3051 3050 3048 3047 3046 3045 3044 3043 3042 3041
3028 3030 3031 3033 3034 3035 3036 3038 3039 3040 3042 3043 3046 3048 3049 3051 3053 3055 3056 3058 3060 3061 3063 3064 3065 3066 3067 3068 3069 3070 3070 3071 3072 3072 3072 3072 3072 3072 3072 3073 3073 3073 3073 3073 3072 3072 3072 3072 3071 3071 3071 3070 3070 3069 3068 3067 3066 3065 3064 3063 3062 3060 3059 3058 3057 3057 3056 3055 3054 3053 3052 3051 3050 3049 3048 3047 3046 3044 3043 3042 3041 3040 3039 3038 3037
3025 3027 3029 3030 3031 3032 3033 3034 3036 3037 3038 3040 3043 3044 3046 3048 3050 3052 3054 3055 3057 3058 3060 3061 3062 3063 3064 3064 3065 3066 3066 3067 3068 3068 3068 3068 3069 3069 3069 3069 3069 3069 3069 3068 3068 3068 3068 3067 3067 3066 3066 3065 3065 3064 3063 3063 3062 3060 3059 3058 3057 3056 3055 3054 3053 3052 3051 3049 3048 3047 3046 3045 3044 3043 3043 3042 3041 3040 3039 3038 3037 3036 3035 3034 3033